Hourly Data Report for May 08, 2012

All times are specified in Local Standard Time (LST). Add 1 hour to adjust for Daylight Saving Time where and when it is observed.

PENTICTON A
BRITISH COLUMBIA

49°27'45.000" N
119°36'08.000" W
344.40 m
1126146
71889
YYF

Related Data

No related data is available for this station

Download Data

Hourly Data (May 2012)
Hourly Data Report for May 8, 2012
Temp Definition
°C
Dew Point Temp Definition
°C
Rel Hum Definition
%
Wind Dir Definition
10's deg

Wind Spd Definition
km/h
Visibility Definition
km
Stn Press Definition
kPa
Hmdx Definition


Wind Chill Definition


Weather Definition


TIME
00:00 Legend Double Dagger 9.9 3.9 66 27 5 10.0 97.86     LegendNANA
01:00 Legend Double Dagger 8.9 4.0 71   0 10.0 97.85     Mostly Cloudy
02:00 Legend Double Dagger 8.8 4.1 72   0 10.0 97.83     LegendNANA
03:00 Legend Double Dagger 7.9 3.6 74   0 10.0 97.83     LegendNANA
04:00 Legend Double Dagger 6.8 4.0 82 9 8 10.0 97.81     Mostly Cloudy
05:00 Legend Double Dagger 7.6 3.5 75   0 10.0 97.81     LegendNANA
06:00 Legend Double Dagger 9.4 5.6 77 25 4 10.0 97.81     LegendNANA
07:00 Legend Double Dagger 12.2 4.0 57   0 10.0 97.75     Mostly Cloudy
08:00 Legend Double Dagger 15.3 4.7 49 14 18 10.0 97.65     LegendNANA
09:00 Legend Double Dagger 16.6 4.7 45 17 21 10.0 97.61     LegendNANA
10:00 Legend Double Dagger 18.1 4.8 41 17 18 10.0 97.53     Mostly Cloudy
11:00 Legend Double Dagger 19.5 4.6 37 17 21 10.0 97.46     LegendNANA
12:00 Legend Double Dagger 20.5 5.1 36 17 25 10.0 97.37     LegendNANA
13:00 Legend Double Dagger 22.0 6.4 36 18 26 10.0 97.30     Cloudy
14:00 Legend Double Dagger 22.5 6.0 34 18 25 10.0 97.20     LegendNANA
15:00
16:00
17:00 Legend Double Dagger 21.4 9.1 45 33 6 10.0 97.03     LegendNANA
18:00 Legend Double Dagger 20.4 7.6 43 1 9 10.0 97.01     LegendNANA
19:00 Legend Double Dagger 19.7 6.2 41 36 7 10.0 97.01     Mostly Cloudy
20:00 Legend Double Dagger 16.6 6.8 52 2 13 10.0 97.04     LegendNANA
21:00 Legend Double Dagger 17.4 1.9 35 3 15 10.0 97.12     LegendNANA
22:00 Legend Double Dagger 16.7 2.4 38 3 18 10.0 97.18     Mostly Cloudy
23:00 Legend Double Dagger 15.3 3.2 44 5 5 10.0 97.24     LegendNANA

Notes on Data Quality.

Legend

  • E = Estimated
  • M = Missing
  • NA = Not Available
  • ‡ = Partner data that is not subject to review by the National Climate Archives
Date modified: